Location: Brusselsch Zeekanaal
(50.8667°N, 4.3667°E)
Time: 03:14:39
(UTC+00:00)

Resurs 1-4 Rocket - Pass Details

Date: 08 November 2025
Orbit: 799 x 811 km, 98.8° (Epoch: 15 December)

Event Time Altitude Azimuth Distance (km) Brightness Sun altitude
Rises 03:44:54 0° 8° (N) 3,335 5.5 -28.7°
Reaches altitude 10° 03:47:34 10° 356° (N) 2,401 4.6 -28.3°
Enters shadow 03:48:20 13° 350° (N) 2,168 4.3 -28.2°
